timestamp,surface_pressure_avg,surface_temp_avg,battery_voltage,lat,long
2020-09-11 00:09:01+00:00,227.1014,18.3,12.81,47.84626,-54.09684
2020-09-11 00:19:01+00:00,228.5314,18.38,12.73,47.84626,-54.09684
2020-09-11 00:29:01+00:00,228.2864,18.45,12.73,47.84626,-54.09684
2020-09-11 00:39:01+00:00,224.8531,18.59,12.73,47.84626,-54.09684
2020-09-11 00:49:01+00:00,224.4881,18.68,12.73,47.84626,-54.09684
2020-09-11 00:59:01+00:00,227.4197,18.7,12.73,47.84626,-54.09684
2020-09-11 01:09:01+00:00,226.8314,18.7,12.73,47.84626,-54.09684
2020-09-11 01:19:01+00:00,224.6798,18.72,12.81,47.84626,-54.09684
2020-09-11 01:29:01+00:00,226.8248,18.75,12.81,47.84626,-54.09684
2020-09-11 01:39:01+00:00,231.2947,18.7,12.81,47.84626,-54.09684
2020-09-11 01:49:01+00:00,232.8515,18.7,12.81,47.84626,-54.09684
2020-09-11 01:59:01+00:00,235.7931,18.7,12.81,47.84626,-54.09684
2020-09-11 02:09:01+00:00,238.9398,18.7,12.81,47.84626,-54.09684
2020-09-11 02:19:01+00:00,241.4864,18.66,12.81,47.84626,-54.09684
2020-09-11 02:29:01+00:00,245.7398,18.65,12.81,47.84626,-54.09684
2020-09-11 02:39:01+00:00,253.2347,18.67,12.81,47.84626,-54.09684
2020-09-11 02:49:01+00:00,255.4748,18.7,12.81,47.84626,-54.09684
2020-09-11 02:59:01+00:00,256.3014,18.78,12.81,47.84626,-54.09684
2020-09-11 03:09:01+00:00,262.8231,18.8,12.81,47.84626,-54.09684
2020-09-11 03:19:01+00:00,268.4897,18.8,12.73,47.84626,-54.09684
2020-09-11 03:29:01+00:00,270.5364,18.85,12.73,47.84626,-54.09684
2020-09-11 03:39:01+00:00,274.1364,18.88,12.73,47.84626,-54.09684
2020-09-11 03:49:01+00:00,278.9263,18.8,12.73,47.84626,-54.09684
2020-09-11 03:59:01+00:00,277.4247,18.86,12.73,47.84626,-54.09684
2020-09-11 04:09:01+00:00,275.9097,18.9,12.73,47.84626,-54.09684
2020-09-11 04:19:01+00:00,281.2464,18.83,12.73,47.84626,-54.09684
2020-09-11 04:29:01+00:00,284.858,18.89,12.73,47.84626,-54.09684
2020-09-11 04:39:01+00:00,284.8847,18.9,12.73,47.84626,-54.09684
2020-09-11 04:49:01+00:00,285.4181,18.9,12.73,47.84626,-54.09684
2020-09-11 04:59:01+00:00,290.4197,18.9,12.73,47.84626,-54.09684
2020-09-11 05:09:01+00:00,287.1547,18.94,12.73,47.84626,-54.09684
2020-09-11 05:19:01+00:00,283.6364,18.97,12.73,47.84626,-54.09684
2020-09-11 05:29:01+00:00,288.7463,18.95,12.73,47.84626,-54.09684
2020-09-11 05:39:01+00:00,293.968,18.96,12.73,47.84626,-54.09684
2020-09-11 05:49:01+00:00,291.4081,18.98,12.73,47.84626,-54.09684
2020-09-11 05:59:01+00:00,287.7663,18.99,12.73,47.84626,-54.09684
2020-09-11 06:09:01+00:00,290.808,19.0,12.73,47.84626,-54.09684
2020-09-11 06:19:01+00:00,292.2731,19.0,12.73,47.84626,-54.09684
2020-09-11 06:29:01+00:00,287.5314,19.0,12.73,47.84626,-54.09684
2020-09-11 06:39:01+00:00,286.8097,19.0,12.73,47.84626,-54.09684
2020-09-11 06:49:01+00:00,288.3464,19.0,12.73,47.84626,-54.09684
2020-09-11 06:59:01+00:00,283.2964,19.0,12.73,47.84626,-54.09684
2020-09-11 07:09:01+00:00,277.2514,19.0,12.73,47.84626,-54.09684
2020-09-11 07:19:01+00:00,277.0347,18.9,12.73,47.84626,-54.09684
2020-09-11 07:29:01+00:00,276.3247,18.83,12.73,47.84626,-54.09684
2020-09-11 07:39:01+00:00,273.3747,18.89,12.73,47.84626,-54.09684
2020-09-11 07:49:01+00:00,272.2498,18.9,12.73,47.84626,-54.09684
2020-09-11 07:59:01+00:00,270.5597,18.9,12.73,47.84626,-54.09684
2020-09-11 08:09:01+00:00,262.8881,18.9,12.73,47.84626,-54.09684
2020-09-11 08:19:01+00:00,256.6281,18.9,12.65,47.84626,-54.09684
2020-09-11 08:29:01+00:00,252.6514,18.9,12.65,47.84626,-54.09684
2020-09-11 08:39:01+00:00,246.7448,18.9,12.65,47.84626,-54.09684
2020-09-11 08:49:01+00:00,239.5497,18.9,12.65,47.84626,-54.09684
2020-09-11 08:59:01+00:00,236.1114,18.9,12.65,47.84626,-54.09684
2020-09-11 09:09:01+00:00,232.5464,18.9,12.65,47.84626,-54.09684
2020-09-11 09:19:01+00:00,230.0147,18.9,12.65,47.84626,-54.09684
2020-09-11 09:29:01+00:00,228.1731,18.91,12.65,47.84626,-54.09684
2020-09-11 09:39:01+00:00,222.0581,18.95,12.65,47.84626,-54.09684
2020-09-11 09:49:01+00:00,220.6414,18.99,12.65,47.84626,-54.09684
2020-09-11 09:59:01+00:00,222.4514,18.99,12.65,47.84626,-54.09684
2020-09-11 10:09:01+00:00,221.0998,19.0,12.65,47.84626,-54.09684
2020-09-11 10:19:01+00:00,219.9681,19.0,12.65,47.84626,-54.09684
2020-09-11 10:29:01+00:00,220.2464,19.0,12.65,47.84626,-54.09684
2020-09-11 10:39:01+00:00,219.7231,19.09,12.65,47.84626,-54.09684
2020-09-11 10:49:01+00:00,218.8381,19.1,12.65,47.84626,-54.09684
2020-09-11 10:59:01+00:00,217.4764,19.1,12.65,47.84626,-54.09684
2020-09-11 11:09:01+00:00,220.9764,19.1,12.65,47.84626,-54.09684
2020-09-11 11:19:01+00:00,226.1815,19.1,12.65,47.84626,-54.09684
2020-09-11 11:29:01+00:00,227.8115,19.1,12.65,47.84626,-54.09684
2020-09-11 11:39:01+00:00,230.2464,19.1,12.65,47.84626,-54.09684
2020-09-11 11:49:01+00:00,237.5698,19.1,12.65,47.84626,-54.09684
2020-09-11 11:59:01+00:00,237.1864,19.1,12.65,47.84626,-54.09684
2020-09-11 12:09:01+00:00,235.6298,19.1,12.65,47.84626,-54.09684
2020-09-11 12:19:01+00:00,236.4931,19.1,12.73,47.84626,-54.09684
2020-09-11 12:29:01+00:00,241.07299999999998,19.1,12.73,47.84626,-54.09684
2020-09-11 12:39:01+00:00,239.5665,19.1,12.73,47.84626,-54.09684
2020-09-11 12:49:01+00:00,235.0731,19.1,12.73,47.84626,-54.09684
2020-09-11 12:59:01+00:00,233.6415,19.19,12.73,47.84626,-54.09684
2020-09-11 13:09:01+00:00,238.0031,19.2,12.73,47.84626,-54.09684
2020-09-11 13:19:01+00:00,241.2181,19.26,12.73,47.84626,-54.09684
2020-09-11 13:29:01+00:00,240.848,19.29,12.73,47.84626,-54.09684
2020-09-11 13:39:01+00:00,243.3281,19.29,12.73,47.84626,-54.09684
2020-09-11 13:49:01+00:00,243.5197,19.29,12.73,47.84626,-54.09684
2020-09-11 13:59:01+00:00,244.1064,19.29,12.73,47.84626,-54.09684
2020-09-11 14:09:01+00:00,242.6281,19.26,12.73,47.84626,-54.09684
2020-09-11 14:19:01+00:00,246.558,19.2,12.73,47.84626,-54.09684
2020-09-11 14:29:01+00:00,251.2214,19.2,12.73,47.84626,-54.09684
2020-09-11 14:39:01+00:00,253.6298,19.19,12.73,47.84626,-54.09684
2020-09-11 14:49:01+00:00,252.8281,19.2,12.73,47.84626,-54.09684
2020-09-11 14:59:01+00:00,256.9481,19.2,12.73,47.84626,-54.09684
2020-09-11 15:09:01+00:00,264.6597,19.2,12.73,47.84626,-54.09684
2020-09-11 15:19:01+00:00,266.2697,19.2,12.89,47.84626,-54.09684
2020-09-11 15:29:01+00:00,274.1014,19.19,12.89,47.84626,-54.09684
2020-09-11 15:39:01+00:00,286.0314,19.2,12.89,47.84626,-54.09684
2020-09-11 15:49:01+00:00,292.9214,19.2,12.89,47.84626,-54.09684
2020-09-11 15:59:01+00:00,291.418,19.27,12.89,47.84626,-54.09684
2020-09-11 16:09:01+00:00,294.4047,19.29,12.89,47.84626,-54.09684
2020-09-11 16:19:01+00:00,301.4997,19.27,12.97,47.84626,-54.09684
2020-09-11 16:29:01+00:00,304.3613,19.2,12.97,47.84626,-54.09684
2020-09-11 16:39:01+00:00,304.048,19.2,12.97,47.84626,-54.09684
2020-09-11 16:49:01+00:00,307.7415,19.2,12.97,47.84626,-54.09684
2020-09-11 16:59:01+00:00,305.6946,19.2,12.97,47.84626,-54.09684
2020-09-11 17:09:01+00:00,304.6847,19.2,12.97,47.84626,-54.09684
2020-09-11 17:19:01+00:00,308.098,19.2,13.13,47.84626,-54.09684
2020-09-11 17:29:01+00:00,317.748,19.2,13.13,47.84626,-54.09684
2020-09-11 17:39:01+00:00,314.423,19.2,13.13,47.84626,-54.09684
2020-09-11 17:49:01+00:00,308.993,19.12,13.13,47.84626,-54.09684
2020-09-11 17:59:01+00:00,317.9563,19.09,13.13,47.84626,-54.09684
2020-09-11 18:09:01+00:00,325.1313,19.1,13.13,47.84626,-54.09684
2020-09-11 18:19:01+00:00,317.2347,19.1,13.21,47.84626,-54.09684
2020-09-11 18:29:01+00:00,313.5063,19.0,13.21,47.84626,-54.09684
2020-09-11 18:39:01+00:00,318.1013,19.07,13.21,47.84626,-54.09684
2020-09-11 18:49:01+00:00,317.723,19.1,13.21,47.84626,-54.09684
2020-09-11 18:59:01+00:00,309.2196,19.1,13.21,47.84626,-54.09684
2020-09-11 19:09:01+00:00,308.7396,19.1,13.21,47.84626,-54.09684
2020-09-11 19:19:01+00:00,316.7147,19.0,13.29,47.84626,-54.09684
2020-09-11 19:29:01+00:00,317.323,19.0,13.29,47.84626,-54.09684
2020-09-11 19:39:01+00:00,305.9979,19.0,13.29,47.84626,-54.09684
2020-09-11 19:49:01+00:00,303.228,19.0,13.29,47.84626,-54.09684
2020-09-11 19:59:01+00:00,304.4863,19.0,13.29,47.84626,-54.09684
2020-09-11 20:09:01+00:00,297.958,18.95,13.29,47.84626,-54.09684
2020-09-11 20:19:01+00:00,286.8347,18.9,13.21,47.84626,-54.09684
2020-09-11 20:29:01+00:00,288.593,18.9,13.21,47.84626,-54.09684
2020-09-11 20:39:01+00:00,286.1814,18.9,13.21,47.84626,-54.09684
2020-09-11 20:49:01+00:00,278.0347,18.8,13.21,47.84626,-54.09684
2020-09-11 20:59:01+00:00,270.0881,18.8,13.21,47.84626,-54.09684
2020-09-11 21:09:01+00:00,270.1247,18.8,13.21,47.84626,-54.09684
2020-09-11 21:19:01+00:00,267.7897,18.8,13.05,47.84626,-54.09684
2020-09-11 21:29:01+00:00,262.4064,18.7,13.05,47.84626,-54.09684
2020-09-11 21:39:01+00:00,257.7848,18.7,13.05,47.84626,-54.09684
2020-09-11 21:49:01+00:00,257.5031,18.75,13.05,47.84626,-54.09684
2020-09-11 21:59:01+00:00,255.1898,18.8,13.05,47.84626,-54.09684
2020-09-11 22:09:01+00:00,249.5398,18.8,13.05,47.84626,-54.09684
2020-09-11 22:19:01+00:00,247.7715,18.8,12.89,47.84626,-54.09684
2020-09-11 22:29:01+00:00,250.6114,18.75,12.89,47.84626,-54.09684
2020-09-11 22:39:01+00:00,246.7014,18.77,12.89,47.84626,-54.09684
2020-09-11 22:49:01+00:00,241.6448,18.8,12.89,47.84626,-54.09684
2020-09-11 22:59:01+00:00,243.5915,18.7,12.89,47.84626,-54.09684
2020-09-11 23:09:01+00:00,242.3831,18.7,12.89,47.84626,-54.09684
2020-09-11 23:19:01+00:00,234.5731,18.5,12.81,47.84626,-54.09684
2020-09-11 23:29:01+00:00,232.2297,18.4,12.81,47.84626,-54.09684
2020-09-11 23:39:01+00:00,236.808,18.2,12.81,47.84626,-54.09684
2020-09-11 23:49:01+00:00,238.9048,18.1,12.81,47.84626,-54.09684
2020-09-11 23:59:01+00:00,237.3931,18.06,12.81,47.84626,-54.09684
